Weather History for KY63 - January, 2012

Change the Weather History Date:

Sunday, January 8, 2012

  Actual Average (KFFM) Record (KFFM)
Temperature  
Mean Temperature 28 °F -  
Max Temperature 42 °F 15 °F 46 °F (2002)
Min Temperature 14 °F -6 °F -27 °F (1986)
Degree Days  
Heating Degree Days 37    
Moisture  
Dew Point 23 °F    
Average Humidity 79    
Maximum Humidity 100    
Minimum Humidity 49    
Precipitation  
Precipitation 0.00 in - - ()
Sea Level Pressure  
Sea Level Pressure 30.14 in    
Wind  
Wind Speed 6 mph (South)    
Max Wind Speed 15 mph    
Max Gust Speed 21 mph    
Visibility 10 miles    
Events      
Averages and records for this station are not official NWS values.
T = Trace of Precipitation, MM = Missing Value Source: NWS Daily Summary

Daily Weather History Graph

Daily Weather History Graph

Search for Another Location

Airport or City:

Trip Planner

Search our weather history database for the weather conditions in past years. The results will help you decide how hot, cold, wet, or windy it might be!

Date:

Astronomy

Jan. 08, 2012 Rise Set
Actual Time 8:05 AM CST 4:56 PM CST
Civil Twilight 7:31 AM CST 5:30 PM CST
Nautical Twilight 6:53 AM CST 6:07 PM CST
Astronomical Twilight 6:17 AM CST 6:43 PM CST
Moon 4:41 PM CST (1/8) 7:24 AM CST (1/8)
Length of Visible Light 9h 59m
Length of Day
8h 51m
Full, 100% of the Moon is Illuminated
Jan 8
Full
Jan 9
Full
Jan 16
Last Quarter
Jan 23
New
Jan 30
First Quarter

Hourly Weather History & Observations

Time (CST) Temp. Windchill Dew Point Humidity Pressure Visibility Wind Dir Wind Speed Gust Speed Precip Events Conditions
12:15 AM 23.0 °F 18.4 °F 19.4 °F 86% 30.18 in 10.0 mi West 3.5 mph - N/A   Clear
12:35 AM 23.0 °F 18.4 °F 19.4 °F 86% 30.18 in 10.0 mi West 3.5 mph - N/A   Clear
12:55 AM 23.0 °F - 19.4 °F 86% 30.18 in 10.0 mi Calm Calm - N/A   Clear
1:15 AM 21.2 °F - 19.4 °F 93% 30.18 in 10.0 mi Calm Calm - N/A   Clear
1:35 AM 21.2 °F - 19.4 °F 93% 30.17 in 10.0 mi Calm Calm - N/A   Clear
2:15 AM 19.4 °F - 17.6 °F 93% 30.17 in 10.0 mi Calm Calm - N/A   Clear
2:55 AM 19.4 °F - 19.4 °F 100% 30.18 in 10.0 mi Calm Calm - N/A   Clear
3:15 AM 19.4 °F - 17.6 °F 93% 30.17 in 10.0 mi Calm Calm - N/A   Clear
3:35 AM 19.4 °F - 17.6 °F 93% 30.18 in 10.0 mi Calm Calm - N/A   Clear
4:15 AM 19.4 °F - 19.4 °F 100% 30.18 in 10.0 mi Calm Calm - N/A   Clear
4:35 AM 19.4 °F 14.3 °F 19.4 °F 100% 30.18 in 10.0 mi SE 3.5 mph - N/A   Clear
4:55 AM 19.4 °F 12.8 °F 17.6 °F 93% 30.17 in 10.0 mi ESE 4.6 mph - N/A   Clear
5:15 AM 19.4 °F 14.3 °F 19.4 °F 100% 30.17 in 10.0 mi ESE 3.5 mph - N/A   Clear
5:35 AM 19.4 °F 14.3 °F 17.6 °F 93% 30.17 in 10.0 mi SE 3.5 mph - N/A   Clear
5:55 AM 14.0 °F 2.9 °F 12.2 °F 93% 30.18 in 10.0 mi South 8.1 mph - N/A   Clear
6:15 AM 14.0 °F 3.9 °F 12.2 °F 93% 30.19 in 10.0 mi SSW 6.9 mph - N/A   Clear
6:35 AM 17.6 °F 9.3 °F 15.8 °F 93% 30.19 in 10.0 mi South 5.8 mph - N/A   Clear
6:55 AM 19.4 °F 12.8 °F 17.6 °F 93% 30.19 in 10.0 mi SSE 4.6 mph - N/A   Clear
7:15 AM 19.4 °F 14.3 °F 19.4 °F 100% 30.19 in 10.0 mi SSE 3.5 mph - N/A   Clear
7:55 AM 19.4 °F 10.4 °F 17.6 °F 93% 30.18 in 10.0 mi SE 6.9 mph - N/A   Clear
8:35 AM 21.2 °F 14.9 °F 19.4 °F 93% 30.19 in 10.0 mi SE 4.6 mph - N/A   Overcast
8:55 AM 21.2 °F 13.6 °F 19.4 °F 93% 30.19 in 10.0 mi SE 5.8 mph - N/A   Scattered Clouds
9:15 AM 21.2 °F 13.6 °F 19.4 °F 93% 30.20 in 10.0 mi SE 5.8 mph - N/A   Clear
9:35 AM 23.0 °F 15.8 °F 21.2 °F 93% 30.19 in 10.0 mi SE 5.8 mph - N/A   Clear
9:55 AM 24.8 °F 19.1 °F 23.0 °F 93% 30.19 in 10.0 mi SE 4.6 mph - N/A   Clear
10:15 AM 28.4 °F 22.2 °F 23.0 °F 80% 30.19 in 10.0 mi SE 5.8 mph - N/A   Clear
10:35 AM 30.2 °F 21.9 °F 26.6 °F 86% 30.19 in 10.0 mi SSE 9.2 mph - N/A   Clear
10:55 AM 32.0 °F 24.2 °F 26.6 °F 80% 30.19 in 10.0 mi SSE 9.2 mph - N/A   Clear
11:15 AM 32.0 °F 23.6 °F 26.6 °F 80% 30.18 in 10.0 mi South 10.4 mph - N/A   Scattered Clouds
11:35 AM 33.8 °F 25.8 °F 26.6 °F 75% 30.17 in 10.0 mi SSE 10.4 mph - N/A   Scattered Clouds
11:55 AM 35.6 °F 27.5 °F 26.6 °F 70% 30.17 in 10.0 mi South 11.5 mph - N/A   Mostly Cloudy
12:15 PM 37.4 °F 29.8 °F 24.8 °F 60% 30.16 in 10.0 mi South 11.5 mph - N/A   Mostly Cloudy
12:55 PM 37.4 °F 29.8 °F 23.0 °F 56% 30.14 in 10.0 mi South 11.5 mph - N/A   Clear
1:15 PM 39.2 °F 32.5 °F 24.8 °F 56% 30.13 in 10.0 mi South 10.4 mph - N/A   Clear
1:35 PM 41.0 °F 34.3 °F 24.8 °F 53% 30.13 in 5.0 mi SSW 11.5 mph - N/A   Haze
1:55 PM 42.8 °F 36.6 °F 26.6 °F 53% 30.13 in 10.0 mi SSW 11.5 mph - N/A   Clear
2:15 PM 42.8 °F 36.6 °F 24.8 °F 49% 30.11 in 7.0 mi SW 11.5 mph - N/A   Clear
2:35 PM 42.8 °F 35.4 °F 26.6 °F 53% 30.09 in 10.0 mi SSW 15.0 mph 19.6 mph N/A   Clear
2:55 PM 42.8 °F 35.4 °F 26.6 °F 53% 30.08 in 7.0 mi SW 15.0 mph 20.7 mph N/A   Clear
3:15 PM 42.8 °F 35.4 °F 26.6 °F 53% 30.09 in 7.0 mi SW 15.0 mph - N/A   Clear
3:35 PM 42.8 °F 37.0 °F 26.6 °F 53% 30.08 in 10.0 mi SSW 10.4 mph - N/A   Clear
3:55 PM 41.0 °F 33.5 °F 26.6 °F 57% 30.08 in 10.0 mi SW 13.8 mph 17.3 mph N/A   Clear
4:15 PM 41.0 °F 34.3 °F 26.6 °F 57% 30.08 in 10.0 mi SW 11.5 mph - N/A   Clear
4:35 PM 39.2 °F 32.0 °F 26.6 °F 61% 30.08 in 10.0 mi SW 11.5 mph - N/A   Clear
4:55 PM 37.4 °F 29.8 °F 26.6 °F 65% 30.08 in 10.0 mi SW 11.5 mph - N/A   Clear
5:15 PM 35.6 °F 28.0 °F 26.6 °F 70% 30.07 in 10.0 mi SW 10.4 mph - N/A   Clear
5:35 PM 35.6 °F 28.6 °F 26.6 °F 70% 30.07 in 10.0 mi SW 9.2 mph - N/A   Clear
5:55 PM 35.6 °F 28.0 °F 26.6 °F 70% 30.07 in 10.0 mi SW 10.4 mph - N/A   Clear
6:15 PM 35.6 °F 27.1 °F 26.6 °F 70% 30.07 in 10.0 mi SW 12.7 mph - N/A   Clear
6:35 PM 35.6 °F 27.5 °F 26.6 °F 70% 30.06 in 10.0 mi SW 11.5 mph - N/A   Clear
7:15 PM 35.6 °F 27.5 °F 28.4 °F 75% 30.05 in 10.0 mi SW 11.5 mph - N/A   Clear
7:55 PM 35.6 °F 26.6 °F 28.4 °F 75% 30.04 in 10.0 mi SW 13.8 mph - N/A   Clear
8:15 PM 33.8 °F 25.3 °F 28.4 °F 81% 30.04 in 10.0 mi SW 11.5 mph - N/A   Clear
8:35 PM 33.8 °F 25.8 °F 28.4 °F 81% 30.02 in 10.0 mi SW 10.4 mph - N/A   Clear
8:55 PM 33.8 °F 25.3 °F 28.4 °F 81% 30.03 in 10.0 mi SW 11.5 mph - N/A   Clear
9:15 PM 32.0 °F 23.6 °F 28.4 °F 87% 30.02 in 10.0 mi SW 10.4 mph - N/A   Clear
9:35 PM 32.0 °F 23.0 °F 26.6 °F 80% 30.01 in 10.0 mi SW 11.5 mph - N/A   Clear
10:15 PM 32.0 °F 21.6 °F 28.4 °F 87% 29.98 in 10.0 mi SW 15.0 mph - N/A   Clear
10:35 PM 33.8 °F 24.3 °F 26.6 °F 75% 29.98 in 10.0 mi SW 13.8 mph - N/A   Clear
11:15 PM 33.8 °F 23.5 °F 26.6 °F 75% 29.97 in 10.0 mi SW 16.1 mph - N/A   Clear
11:35 PM 33.8 °F 23.9 °F 26.6 °F 75% 29.97 in 10.0 mi SW 15.0 mph - N/A   Clear
11:55 PM 33.8 °F 23.9 °F 24.8 °F 70% 29.96 in 10.0 mi SW 15.0 mph - N/A   Clear